Weather in Kuchko-Pamash

Russia / Mari El Republic     56°22′39″N   48°57′54″E
temp.,
°C
wind,
m/s
gust,
m/s
humid.,
%
clouds,
%
prec.,
mm/h
press.,
hPa
HPBL,
m
27 february, sat
sat2700:00−14se71494100 5.5 1001702
03:00−13ese51195100 7.3 999568
06:00−14e51095100 1.5 998489
09:00−13ene5994100 2.1 999485
12:00−11ene5891100 0.5 1000622
15:00−12nne5991100 0.8 1002627
18:00−13nne51192100 0.3 1003554
21:00−14n41094100 0.3 1005347
28 february, sun
sun2800:00−16n41095100 0.1 1006274
03:00−19n499691 0.1 1007238
06:00−19n499676 0.0 1008247
09:00−18n489365 0.0 1009274
12:00−14n479037 0.0 1011374
15:00−14n489047 0.0 1012443
18:00−18nnw359799 0.0 1014113
21:00−20n239876 0.0 101631
1 march, mon
mon100:00−21n22970 0.0 101823
03:00−22n22970 0.0 102020
06:00−23n22980 0.0 102120
09:00−18n12920 0.0 1022159
12:00−12w128410 0.0 1021377
15:00−11w248945 0.0 1021420
18:00−15sw239781 0.0 101956
21:00−15sw389690 0.0 1017224
2 march, tue
tue200:00−14ssw41096100 0.0 1013281
03:00−11ssw51195100 0.1 1009364
06:00−10ssw51294100 0.8 1005488
09:00−6ssw51194100 1.6 1002491
12:00−1ssw5997100 0.8 999535
15:000w3799100 2.6 998489
18:00−1w3797100 0.8 997356
21:00−1nw41097100 1.8 998554
3 march, wed
wed300:00−2nnw61394100 1.1 999669
03:00−4nnw51193100 1.5 1000556
06:00−6nnw51193100 0.1 1001492
09:00−5nnw499499 0.3 1003465
12:00−3nnw5892100 0.3 1004730
15:00−4nnw5988100 0.4 1006830
18:00−6nnw4990100 0.1 1007861
21:00−8nw389496 0.1 1009194